Regional Weather Roundup
Issued by NWS

Home | Current Version | Previous Version | Text Only | Print | Product List | Glossary On
Versions: 1 2 3 4 5 6 7 8 9 10 11 12 13 14 15 16 17 18 19 20 21 22 23 24 25 26 27 28 29 30 31 32 33 34 35 36 37 38 39 40 41 42 43 44 45 46 47 48 49 50
000
ASUS44 KMEG 220100
RWRTN
TENNESSEE HOURLY STATE WEATHER ROUNDUP
NATIONAL WEATHER SERVICE MEMPHIS TN
700 PM CST SAT JAN 21 2017

TNZ002-004-019-021-049-052-054-088>092-220200-
WEST TENNESSEE

CITY           SKY/WX    TMP DP  RH WIND       PRES   REMARKS
MEMPHIS INTL   MOCLDY    64  52  64 SE7       29.54S
NWS MEMPHIS      N/A     62 N/A N/A MISG        N/A
JACKSON        CLOUDY    64  52  64 CALM      29.57F
DYERSBURG      CLOUDY    61  50  67 E5        29.56F
UNION CITY     CLEAR     61  48  63 CALM      29.57S
PARIS          PTCLDY    59  50  72 CALM      29.60R
$$

TNZ008-025-027-028-033-062-065-066-220200-
NORTH MIDDLE TENNESSEE

CITY           SKY/WX    TMP DP  RH WIND       PRES   REMARKS
NASHVILLE      CLOUDY    61  49  64 CALM      29.64R
CLARKSVILLE    CLOUDY    60  47  61 SE5       29.61R
SMYRNA         CLOUDY    58  51  78 CALM      29.65R
CROSSVILLE     CLEAR     51  47  86 CALM      29.65F
$$

TNZ061-075-076-078-094-096-097-220200-
SOUTH MIDDLE TENNESSEE

CITY           SKY/WX    TMP DP  RH WIND       PRES   REMARKS
TULLAHOMA      CLEAR     57  50  77 SE3       29.64F
WINCHESTER     CLEAR     55  50  82 SE7       29.65F
MCMINNVILLE    CLEAR     54  52  94 CALM      29.66R
COLUMBIA       CLEAR     57  57 100 CALM      29.61S
SHELBYVILLE    CLEAR     55  54  94 E3        29.64F
$$

TNZ017-018-042-046-047-220200-
NORTHEAST TENNESSEE

CITY           SKY/WX    TMP DP  RH WIND       PRES   REMARKS
TRI CITIES     CLOUDY    53  51  93 CALM      29.68R
$$

TNZ012-013-036-069-073-074-220200-
CENTRAL EAST TENNESSEE

CITY           SKY/WX    TMP DP  RH WIND       PRES   REMARKS
KNOXVILLE      MOCLDY    55  51  86 CALM      29.66S
OAK RIDGE      CLEAR     53  50  89 CALM      29.68S
GATLINBURG     CLOUDY    52  52 100 CALM      29.66F
$$

TNZ083-085-099-220200-
SOUTHEAST TENNESSEE

CITY           SKY/WX    TMP DP  RH WIND       PRES   REMARKS
CHATTANOOGA    CLOUDY    59  53  80 CALM      29.67R
$$

SKY/WX REPORTED AS FAIR MEANS FEW OR NO CLOUDS BELOW
12 THOUSAND FEET.




USA.gov is the U.S. government's official web portal to all federal, state and local government web resources and services.